Time,TemperatureF,DewpointF,PressureIn,WindDirection,WindDirectionDegrees,WindSpeedMPH,WindSpeedGustMPH,Humidity,HourlyPrecipIn,Conditions,Clouds,dailyrainin,SoftwareType,DateUTC
2013-01-02 00:00:00,22.8,15.1,29.23,NNW,338,3.0,10.0,72,0.00,,,0.00,meteohub,2013-01-02 05:00:00,
2013-01-02 00:01:00,22.8,15.1,29.23,West,270,2.0,10.0,72,0.00,,,0.00,meteohub,2013-01-02 05:01:00,
2013-01-02 00:06:00,22.8,15.1,29.23,SSE,158,4.0,11.0,72,0.00,,,0.00,meteohub,2013-01-02 05:06:00,
2013-01-02 00:11:00,22.8,15.1,29.23,SW,225,7.0,11.0,72,0.00,,,0.00,meteohub,2013-01-02 05:11:00,
2013-01-02 00:16:00,22.8,15.1,29.22,SW,225,4.0,7.0,72,0.00,,,0.00,meteohub,2013-01-02 05:16:00,
2013-01-02 00:21:00,22.8,15.1,29.22,SSW,203,4.0,7.0,72,0.00,,,0.00,meteohub,2013-01-02 05:21:00,
2013-01-02 00:26:00,22.6,14.9,29.22,SW,225,5.0,7.0,72,0.00,,,0.00,meteohub,2013-01-02 05:26:00,
2013-01-02 00:31:00,22.6,14.9,29.22,SSW,203,7.0,7.0,72,0.00,,,0.00,meteohub,2013-01-02 05:31:00,
2013-01-02 00:36:00,22.6,14.7,29.21,SSW,203,5.0,7.0,71,0.00,,,0.00,meteohub,2013-01-02 05:36:00,
2013-01-02 00:41:00,22.8,14.9,29.21,WSW,248,5.0,7.0,71,0.00,,,0.00,meteohub,2013-01-02 05:41:00,
2013-01-02 00:46:00,22.8,14.9,29.21,SW,225,4.0,7.0,71,0.00,,,0.00,meteohub,2013-01-02 05:46:00,
2013-01-02 00:51:00,22.8,14.9,29.21,SW,225,6.0,7.0,71,0.00,,,0.00,meteohub,2013-01-02 05:51:00,
2013-01-02 00:56:00,22.8,14.9,29.21,SSW,203,4.0,9.0,71,0.00,,,0.00,meteohub,2013-01-02 05:56:00,
2013-01-02 01:01:00,22.8,14.9,29.21,SW,225,2.0,9.0,71,0.00,,,0.00,meteohub,2013-01-02 06:01:00,
2013-01-02 01:06:00,22.6,14.7,29.21,West,270,2.0,9.0,71,0.00,,,0.00,meteohub,2013-01-02 06:06:00,
2013-01-02 01:11:00,22.6,14.7,29.21,SW,225,5.0,6.0,71,0.00,,,0.00,meteohub,2013-01-02 06:11:00,
2013-01-02 01:16:00,22.6,14.9,29.21,WSW,248,5.0,8.0,72,0.00,,,0.00,meteohub,2013-01-02 06:16:00,
2013-01-02 01:21:00,22.6,14.7,29.21,West,270,6.0,8.0,71,0.00,,,0.00,meteohub,2013-01-02 06:21:00,
2013-01-02 01:26:00,22.6,14.9,29.21,SW,225,2.0,8.0,72,0.00,,,0.00,meteohub,2013-01-02 06:26:00,
2013-01-02 01:31:00,22.5,14.7,29.21,SW,225,11.0,11.0,72,0.00,,,0.00,meteohub,2013-01-02 06:31:00,
2013-01-02 01:36:00,22.3,14.7,29.21,WSW,248,6.0,11.0,72,0.00,,,0.00,meteohub,2013-01-02 06:36:00,
2013-01-02 01:41:00,22.1,14.2,29.21,WNW,293,5.0,11.0,71,0.00,,,0.00,meteohub,2013-01-02 06:41:00,
2013-01-02 01:46:00,22.1,14.2,29.21,WSW,248,5.0,11.0,71,0.00,,,0.00,meteohub,2013-01-02 06:46:00,
2013-01-02 01:51:00,21.9,14.0,29.21,SSW,203,6.0,10.0,71,0.00,,,0.00,meteohub,2013-01-02 06:51:00,
2013-01-02 01:56:00,21.9,14.0,29.22,NW,315,8.0,8.0,71,0.00,,,0.00,meteohub,2013-01-02 06:56:00,
2013-01-02 02:01:00,21.7,13.8,29.22,SSW,203,3.0,8.0,71,0.00,,,0.00,meteohub,2013-01-02 07:01:00,
2013-01-02 02:06:00,21.7,13.8,29.22,SSW,203,3.0,8.0,71,0.00,,,0.00,meteohub,2013-01-02 07:06:00,
2013-01-02 02:11:00,21.6,13.6,29.22,WSW,248,2.0,8.0,71,0.00,,,0.00,meteohub,2013-01-02 07:11:00,
2013-01-02 02:16:00,21.6,13.6,29.22,West,270,3.0,7.0,71,0.00,,,0.00,meteohub,2013-01-02 07:16:00,
2013-01-02 02:21:00,21.6,13.6,29.22,NW,315,2.0,6.0,71,0.00,,,0.00,meteohub,2013-01-02 07:21:00,
2013-01-02 02:26:00,21.4,13.5,29.22,SW,225,2.0,6.0,71,0.00,,,0.00,meteohub,2013-01-02 07:26:00,
2013-01-02 02:31:00,21.2,13.6,29.22,SSW,203,2.0,6.0,72,0.00,,,0.00,meteohub,2013-01-02 07:31:00,
2013-01-02 02:36:00,21.0,13.5,29.23,SSW,203,2.0,4.0,72,0.00,,,0.00,meteohub,2013-01-02 07:36:00,
2013-01-02 02:41:00,20.8,13.3,29.23,SW,225,0.0,5.0,72,0.00,,,0.00,meteohub,2013-01-02 07:41:00,
2013-01-02 02:46:00,20.7,13.1,29.23,NE,45,2.0,5.0,72,0.00,,,0.00,meteohub,2013-01-02 07:46:00,
2013-01-02 02:51:00,20.5,13.3,29.23,SW,225,0.0,4.0,73,0.00,,,0.00,meteohub,2013-01-02 07:51:00,
2013-01-02 02:56:00,20.5,13.3,29.23,SSW,203,3.0,4.0,73,0.00,,,0.00,meteohub,2013-01-02 07:56:00,
2013-01-02 03:01:00,20.5,13.3,29.23,SW,225,3.0,7.0,73,0.00,,,0.00,meteohub,2013-01-02 08:01:00,
2013-01-02 03:06:00,20.5,13.3,29.23,SSW,203,2.0,7.0,73,0.00,,,0.00,meteohub,2013-01-02 08:06:00,
2013-01-02 03:11:00,20.3,13.1,29.23,SSW,203,4.0,7.0,73,0.00,,,0.00,meteohub,2013-01-02 08:11:00,
2013-01-02 03:16:00,20.5,13.3,29.23,SSW,203,4.0,6.0,73,0.00,,,0.00,meteohub,2013-01-02 08:16:00,
2013-01-02 03:21:00,20.5,13.3,29.23,SSW,203,0.0,7.0,73,0.00,,,0.00,meteohub,2013-01-02 08:21:00,
2013-01-02 03:26:00,20.5,13.3,29.23,SSE,158,5.0,7.0,73,0.00,,,0.00,meteohub,2013-01-02 08:26:00,
2013-01-02 03:31:00,20.5,13.3,29.23,WNW,293,3.0,5.0,73,0.00,,,0.00,meteohub,2013-01-02 08:31:00,
2013-01-02 03:36:00,20.7,13.5,29.24,SSW,203,4.0,5.0,73,0.00,,,0.00,meteohub,2013-01-02 08:36:00,
2013-01-02 03:41:00,20.7,13.5,29.24,SW,225,3.0,5.0,73,0.00,,,0.00,meteohub,2013-01-02 08:41:00,
2013-01-02 03:46:00,20.8,13.6,29.24,SSW,203,2.0,4.0,73,0.00,,,0.00,meteohub,2013-01-02 08:46:00,
2013-01-02 03:51:00,20.8,13.6,29.24,SSW,203,3.0,4.0,73,0.00,,,0.00,meteohub,2013-01-02 08:51:00,
2013-01-02 03:56:00,20.8,13.6,29.24,SSW,203,3.0,4.0,73,0.00,,,0.00,meteohub,2013-01-02 08:56:00,
2013-01-02 04:01:00,20.8,13.8,29.24,SSW,203,4.0,4.0,74,0.00,,,0.00,meteohub,2013-01-02 09:01:00,
2013-01-02 04:06:00,21.0,14.0,29.24,South,180,3.0,4.0,74,0.00,,,0.00,meteohub,2013-01-02 09:06:00,
2013-01-02 04:11:00,21.2,14.2,29.24,SW,225,3.0,4.0,74,0.00,,,0.00,meteohub,2013-01-02 09:11:00,
2013-01-02 04:16:00,21.2,14.2,29.25,SSW,203,4.0,5.0,74,0.00,,,0.00,meteohub,2013-01-02 09:16:00,
2013-01-02 04:22:00,21.2,14.2,29.25,SW,225,3.0,5.0,74,0.00,,,0.00,meteohub,2013-01-02 09:22:00,
2013-01-02 04:27:00,21.2,14.2,29.25,SW,225,4.0,5.0,74,0.00,,,0.00,meteohub,2013-01-02 09:27:00,
2013-01-02 04:32:00,21.2,14.2,29.25,SSW,203,3.0,4.0,74,0.00,,,0.00,meteohub,2013-01-02 09:32:00,
2013-01-02 04:37:00,21.4,14.4,29.24,SSE,158,0.0,4.0,74,0.00,,,0.00,meteohub,2013-01-02 09:37:00,
2013-01-02 04:42:00,21.4,14.4,29.24,SSW,203,1.0,4.0,74,0.00,,,0.00,meteohub,2013-01-02 09:42:00,
2013-01-02 04:47:00,21.4,14.4,29.24,SSW,203,0.0,4.0,74,0.00,,,0.00,meteohub,2013-01-02 09:47:00,
2013-01-02 04:52:00,21.4,14.7,29.24,SSE,158,0.0,3.0,75,0.00,,,0.00,meteohub,2013-01-02 09:52:00,
2013-01-02 04:57:00,21.4,14.7,29.24,SSW,203,0.0,2.0,75,0.00,,,0.00,meteohub,2013-01-02 09:57:00,
2013-01-02 05:02:00,21.4,14.7,29.24,SSE,158,0.0,2.0,75,0.00,,,0.00,meteohub,2013-01-02 10:02:00,
2013-01-02 05:07:00,21.4,14.7,29.24,SW,225,3.0,3.0,75,0.00,,,0.00,meteohub,2013-01-02 10:07:00,
2013-01-02 05:12:00,21.4,14.7,29.24,SSE,158,0.0,3.0,75,0.00,,,0.00,meteohub,2013-01-02 10:12:00,
2013-01-02 05:17:00,21.4,14.7,29.24,SSE,158,2.0,3.0,75,0.00,,,0.00,meteohub,2013-01-02 10:17:00,
2013-01-02 05:22:00,21.4,14.7,29.24,SW,225,3.0,3.0,75,0.00,,,0.00,meteohub,2013-01-02 10:22:00,
2013-01-02 05:27:00,21.4,14.7,29.24,South,180,2.0,3.0,75,0.00,,,0.00,meteohub,2013-01-02 10:27:00,
2013-01-02 05:32:00,21.6,14.9,29.24,South,180,2.0,3.0,75,0.00,,,0.00,meteohub,2013-01-02 10:32:00,
2013-01-02 05:37:00,21.6,14.9,29.25,SSW,203,3.0,3.0,75,0.00,,,0.00,meteohub,2013-01-02 10:37:00,
2013-01-02 05:42:00,21.7,15.1,29.25,SW,225,2.0,3.0,75,0.00,,,0.00,meteohub,2013-01-02 10:42:00,
2013-01-02 05:47:00,21.7,15.1,29.25,SSW,203,0.0,3.0,75,0.00,,,0.00,meteohub,2013-01-02 10:47:00,
2013-01-02 05:52:00,21.9,15.3,29.25,SSW,203,2.0,3.0,75,0.00,,,0.00,meteohub,2013-01-02 10:52:00,
2013-01-02 05:57:00,21.9,15.3,29.25,South,180,3.0,4.0,75,0.00,,,0.00,meteohub,2013-01-02 10:57:00,
2013-01-02 06:02:00,22.1,15.4,29.25,SSW,203,3.0,4.0,75,0.00,,,0.00,meteohub,2013-01-02 11:02:00,
2013-01-02 06:07:00,22.3,15.6,29.25,SSW,203,4.0,4.0,75,0.00,,,0.00,meteohub,2013-01-02 11:07:00,
2013-01-02 06:12:00,22.5,15.8,29.25,SSW,203,3.0,4.0,75,0.00,,,0.00,meteohub,2013-01-02 11:12:00,
2013-01-02 06:17:00,22.6,16.0,29.26,SSE,158,0.0,4.0,75,0.00,,,0.00,meteohub,2013-01-02 11:17:00,
2013-01-02 06:22:00,22.6,16.0,29.26,SSW,203,0.0,4.0,75,0.00,,,0.00,meteohub,2013-01-02 11:22:00,
2013-01-02 06:27:00,22.6,16.0,29.26,SSW,203,3.0,4.0,75,0.00,,,0.00,meteohub,2013-01-02 11:27:00,
2013-01-02 06:32:00,22.6,16.0,29.26,SW,225,2.0,3.0,75,0.00,,,0.00,meteohub,2013-01-02 11:32:00,
2013-01-02 06:37:00,22.6,16.0,29.26,SW,225,3.0,3.0,75,0.00,,,0.00,meteohub,2013-01-02 11:37:00,
2013-01-02 06:42:00,22.6,16.0,29.26,SSE,158,3.0,3.0,75,0.00,,,0.00,meteohub,2013-01-02 11:42:00,
2013-01-02 06:47:00,22.6,16.0,29.26,SW,225,3.0,6.0,75,0.00,,,0.00,meteohub,2013-01-02 11:47:00,
2013-01-02 06:52:00,22.8,16.2,29.26,SSW,203,2.0,6.0,75,0.00,,,0.00,meteohub,2013-01-02 11:52:00,
2013-01-02 06:57:00,22.8,16.2,29.27,SW,225,3.0,6.0,75,0.00,,,0.00,meteohub,2013-01-02 11:57:00,
2013-01-02 07:02:00,22.8,16.2,29.27,SW,225,0.0,7.0,75,0.00,,,0.00,meteohub,2013-01-02 12:02:00,
2013-01-02 07:07:00,22.8,16.2,29.27,SSW,203,3.0,7.0,75,0.00,,,0.00,meteohub,2013-01-02 12:07:00,
2013-01-02 07:12:00,22.8,16.2,29.27,SSE,158,2.0,7.0,75,0.00,,,0.00,meteohub,2013-01-02 12:12:00,
2013-01-02 07:17:00,22.8,16.2,29.27,SSW,203,0.0,6.0,75,0.00,,,0.00,meteohub,2013-01-02 12:17:00,
2013-01-02 07:22:00,22.6,16.0,29.27,SSW,203,2.0,4.0,75,0.00,,,0.00,meteohub,2013-01-02 12:22:00,
2013-01-02 07:27:00,22.8,16.2,29.27,SSW,203,2.0,4.0,75,0.00,,,0.00,meteohub,2013-01-02 12:27:00,
2013-01-02 07:32:00,22.8,16.2,29.27,SSE,158,0.0,3.0,75,0.00,,,0.00,meteohub,2013-01-02 12:32:00,
2013-01-02 07:37:00,22.8,16.2,29.28,NW,315,0.0,3.0,75,0.00,,,0.00,meteohub,2013-01-02 12:37:00,
2013-01-02 07:43:00,22.8,16.2,29.28,SSW,203,0.0,3.0,75,0.00,,,0.00,meteohub,2013-01-02 12:43:00,
2013-01-02 07:48:00,22.8,16.2,29.28,South,180,0.0,2.0,75,0.00,,,0.00,meteohub,2013-01-02 12:48:00,
2013-01-02 07:53:00,22.8,16.2,29.28,NE,45,0.0,2.0,75,0.00,,,0.00,meteohub,2013-01-02 12:53:00,
2013-01-02 07:58:00,22.8,16.2,29.28,NNE,23,0.0,2.0,75,0.00,,,0.00,meteohub,2013-01-02 12:58:00,
2013-01-02 08:03:00,22.8,16.2,29.28,SE,135,0.0,2.0,75,0.00,,,0.00,meteohub,2013-01-02 13:03:00,
2013-01-02 08:08:00,22.8,16.2,29.28,SSE,158,0.0,0.0,75,0.00,,,0.00,meteohub,2013-01-02 13:08:00,
2013-01-02 08:13:00,22.8,16.2,29.28,SW,225,4.0,0.0,75,0.00,,,0.00,meteohub,2013-01-02 13:13:00,
2013-01-02 08:18:00,22.8,16.2,29.29,NW,315,0.0,4.0,75,0.00,,,0.00,meteohub,2013-01-02 13:18:00,
2013-01-02 08:23:00,23.0,16.3,29.29,WSW,248,3.0,4.0,75,0.00,,,0.00,meteohub,2013-01-02 13:23:00,
2013-01-02 08:28:00,23.0,16.3,29.29,SSW,203,0.0,4.0,75,0.00,,,0.00,meteohub,2013-01-02 13:28:00,
2013-01-02 08:33:00,23.0,16.3,29.29,NNE,23,0.0,3.0,75,0.00,,,0.00,meteohub,2013-01-02 13:33:00,
2013-01-02 08:38:00,23.0,16.3,29.29,NE,45,0.0,3.0,75,0.00,,,0.00,meteohub,2013-01-02 13:38:00,
2013-01-02 08:43:00,23.0,16.3,29.29,SE,135,0.0,0.0,75,0.00,,,0.00,meteohub,2013-01-02 13:43:00,
2013-01-02 08:48:00,23.2,16.5,29.29,SSW,203,0.0,0.0,75,0.00,,,0.00,meteohub,2013-01-02 13:48:00,
2013-01-02 08:53:00,23.0,16.3,29.29,SE,135,0.0,0.0,75,0.00,,,0.00,meteohub,2013-01-02 13:53:00,
2013-01-02 08:58:00,23.0,16.3,29.27,SSW,203,0.0,0.0,75,0.00,,,0.00,meteohub,2013-01-02 13:58:00,
2013-01-02 09:03:00,23.2,16.5,29.27,SW,225,0.0,0.0,75,0.00,,,0.00,meteohub,2013-01-02 14:03:00,
2013-01-02 09:08:00,23.2,16.5,29.27,SW,225,0.0,0.0,75,0.00,,,0.00,meteohub,2013-01-02 14:08:00,
2013-01-02 09:13:00,23.4,16.7,29.26,SSW,203,0.0,0.0,75,0.00,,,0.00,meteohub,2013-01-02 14:13:00,
2013-01-02 09:18:00,23.4,16.7,29.26,ESE,113,0.0,0.0,75,0.00,,,0.00,meteohub,2013-01-02 14:18:00,
2013-01-02 09:23:00,23.4,16.7,29.26,South,180,0.0,0.0,75,0.00,,,0.00,meteohub,2013-01-02 14:23:00,
2013-01-02 09:28:00,23.5,16.7,29.26,SSE,158,0.0,0.0,75,0.00,,,0.00,meteohub,2013-01-02 14:28:00,
2013-01-02 09:33:00,23.7,16.9,29.26,South,180,0.0,2.0,75,0.00,,,0.00,meteohub,2013-01-02 14:33:00,
2013-01-02 09:38:00,23.7,16.9,29.27,SSW,203,0.0,2.0,75,0.00,,,0.00,meteohub,2013-01-02 14:38:00,
2013-01-02 09:43:00,23.7,16.9,29.27,SE,135,0.0,2.0,75,0.00,,,0.00,meteohub,2013-01-02 14:43:00,
2013-01-02 09:48:00,23.9,17.1,29.27,SSW,203,0.0,2.0,75,0.00,,,0.00,meteohub,2013-01-02 14:48:00,
2013-01-02 09:53:00,23.9,17.1,29.27,SSW,203,1.0,3.0,75,0.00,,,0.00,meteohub,2013-01-02 14:53:00,
2013-01-02 09:58:00,23.9,17.1,29.28,SSW,203,2.0,3.0,75,0.00,,,0.00,meteohub,2013-01-02 14:58:00,
2013-01-02 10:03:00,24.1,17.2,29.28,SSE,158,2.0,3.0,75,0.00,,,0.00,meteohub,2013-01-02 15:03:00,
2013-01-02 10:08:00,24.1,17.2,29.28,SW,225,3.0,3.0,75,0.00,,,0.00,meteohub,2013-01-02 15:08:00,
2013-01-02 10:13:00,24.3,17.4,29.28,SW,225,0.0,3.0,75,0.00,,,0.00,meteohub,2013-01-02 15:13:00,
2013-01-02 10:18:00,24.4,17.6,29.28,SSW,203,2.0,3.0,75,0.00,,,0.00,meteohub,2013-01-02 15:18:00,
2013-01-02 10:23:00,24.6,17.8,29.28,SSE,158,2.0,3.0,75,0.00,,,0.00,meteohub,2013-01-02 15:23:00,
2013-01-02 10:28:00,24.6,17.8,29.28,SSW,203,2.0,3.0,75,0.00,,,0.00,meteohub,2013-01-02 15:28:00,
2013-01-02 10:33:00,24.6,17.8,29.28,SW,225,2.0,4.0,75,0.00,,,0.00,meteohub,2013-01-02 15:33:00,
2013-01-02 10:38:00,24.8,18.0,29.29,WSW,248,0.0,4.0,75,0.00,,,0.00,meteohub,2013-01-02 15:38:00,
2013-01-02 10:43:00,24.8,18.0,29.29,SSW,203,3.0,4.0,75,0.00,,,0.00,meteohub,2013-01-02 15:43:00,
2013-01-02 10:48:00,24.8,18.0,29.29,SSW,203,2.0,3.0,75,0.00,,,0.00,meteohub,2013-01-02 15:48:00,
2013-01-02 10:53:00,24.8,18.0,29.30,SSW,203,2.0,3.0,75,0.00,,,0.00,meteohub,2013-01-02 15:53:00,
2013-01-02 10:58:00,24.8,18.0,29.30,South,180,2.0,3.0,75,0.00,,,0.00,meteohub,2013-01-02 15:58:00,
2013-01-02 11:03:00,25.2,18.3,29.30,SW,225,2.0,3.0,75,0.00,,,0.00,meteohub,2013-01-02 16:03:00,
2013-01-02 11:08:00,25.2,18.3,29.30,SW,225,4.0,5.0,75,0.00,,,0.00,meteohub,2013-01-02 16:08:00,
2013-01-02 11:13:00,25.2,18.3,29.29,SW,225,2.0,5.0,75,0.00,,,0.00,meteohub,2013-01-02 16:13:00,
2013-01-02 11:18:00,25.3,18.5,29.29,SW,225,4.0,5.0,75,0.00,,,0.00,meteohub,2013-01-02 16:18:00,
2013-01-02 11:23:00,25.5,18.7,29.29,SSW,203,4.0,5.0,75,0.00,,,0.00,meteohub,2013-01-02 16:23:00,
2013-01-02 11:28:00,25.5,18.7,29.29,SW,225,3.0,5.0,75,0.00,,,0.00,meteohub,2013-01-02 16:28:00,
2013-01-02 11:33:00,25.7,18.9,29.29,SW,225,5.0,5.0,75,0.00,,,0.00,meteohub,2013-01-02 16:33:00,
2013-01-02 11:38:00,25.7,18.9,29.29,South,180,4.0,5.0,75,0.00,,,0.00,meteohub,2013-01-02 16:38:00,
2013-01-02 11:43:00,25.7,18.9,29.29,SSW,203,3.0,5.0,75,0.00,,,0.00,meteohub,2013-01-02 16:43:00,
2013-01-02 11:49:00,25.7,18.5,29.29,SSW,203,4.0,5.0,74,0.00,,,0.00,meteohub,2013-01-02 16:49:00,
2013-01-02 11:54:00,25.7,18.5,29.29,SSW,203,3.0,5.0,74,0.00,,,0.00,meteohub,2013-01-02 16:54:00,
2013-01-02 11:59:00,25.7,18.5,29.29,SW,225,7.0,7.0,74,0.00,,,0.00,meteohub,2013-01-02 16:59:00,
2013-01-02 12:04:00,25.7,18.5,29.29,South,180,3.0,7.0,74,0.00,,,0.00,meteohub,2013-01-02 17:04:00,
2013-01-02 12:09:00,25.7,18.5,29.29,SSW,203,4.0,7.0,74,0.00,,,0.00,meteohub,2013-01-02 17:09:00,
2013-01-02 12:14:00,25.7,18.5,29.29,SSW,203,3.0,7.0,74,0.00,,,0.00,meteohub,2013-01-02 17:14:00,
2013-01-02 12:19:00,25.9,18.7,29.29,SSE,158,4.0,5.0,74,0.00,,,0.00,meteohub,2013-01-02 17:19:00,
2013-01-02 12:24:00,26.1,18.9,29.29,SSW,203,4.0,5.0,74,0.00,,,0.00,meteohub,2013-01-02 17:24:00,
2013-01-02 12:29:00,26.2,19.0,29.29,SSW,203,4.0,5.0,74,0.00,,,0.00,meteohub,2013-01-02 17:29:00,
2013-01-02 12:34:00,26.1,18.9,29.28,SW,225,3.0,5.0,74,0.00,,,0.00,meteohub,2013-01-02 17:34:00,
2013-01-02 12:39:00,26.1,18.9,29.28,SW,225,5.0,5.0,74,0.00,,,0.00,meteohub,2013-01-02 17:39:00,
2013-01-02 12:44:00,25.9,18.7,29.28,South,180,7.0,7.0,74,0.00,,,0.00,meteohub,2013-01-02 17:44:00,
2013-01-02 12:49:00,25.7,18.5,29.28,South,180,3.0,7.0,74,0.00,,,0.00,meteohub,2013-01-02 17:49:00,
2013-01-02 12:54:00,25.7,18.5,29.28,SSW,203,7.0,7.0,74,0.00,,,0.00,meteohub,2013-01-02 17:54:00,
2013-01-02 12:59:00,25.5,18.3,29.28,SSW,203,6.0,7.0,74,0.00,,,0.00,meteohub,2013-01-02 17:59:00,
2013-01-02 13:04:00,25.5,18.7,29.28,South,180,5.0,7.0,75,0.00,,,0.00,meteohub,2013-01-02 18:04:00,
2013-01-02 13:09:00,25.5,18.7,29.28,WSW,248,5.0,9.0,75,0.00,,,0.00,meteohub,2013-01-02 18:09:00,
2013-01-02 13:14:00,25.5,18.7,29.28,SSE,158,6.0,9.0,75,0.00,,,0.00,meteohub,2013-01-02 18:14:00,
2013-01-02 13:19:00,25.5,18.7,29.28,SSE,158,8.0,9.0,75,0.00,,,0.00,meteohub,2013-01-02 18:19:00,
2013-01-02 13:24:00,25.5,18.7,29.28,SSW,203,4.0,9.0,75,0.00,,,0.00,meteohub,2013-01-02 18:24:00,
2013-01-02 13:29:00,25.5,18.7,29.28,SW,225,5.0,8.0,75,0.00,,,0.00,meteohub,2013-01-02 18:29:00,
2013-01-02 13:34:00,25.5,18.7,29.27,SSE,158,5.0,8.0,75,0.00,,,0.00,meteohub,2013-01-02 18:34:00,
2013-01-02 13:39:00,25.5,18.7,29.27,ESE,113,4.0,8.0,75,0.00,,,0.00,meteohub,2013-01-02 18:39:00,
2013-01-02 13:44:00,25.5,18.7,29.27,SW,225,4.0,7.0,75,0.00,,,0.00,meteohub,2013-01-02 18:44:00,
2013-01-02 13:49:00,25.5,18.7,29.27,South,180,4.0,7.0,75,0.00,,,0.00,meteohub,2013-01-02 18:49:00,
2013-01-02 13:54:00,25.5,18.7,29.27,SSW,203,4.0,6.0,75,0.00,,,0.00,meteohub,2013-01-02 18:54:00,
2013-01-02 13:59:00,25.5,18.7,29.27,SSE,158,3.0,8.0,75,0.00,,,0.00,meteohub,2013-01-02 18:59:00,
2013-01-02 14:04:00,25.5,18.7,29.27,SSE,158,5.0,8.0,75,0.00,,,0.00,meteohub,2013-01-02 19:04:00,
2013-01-02 14:09:00,25.5,18.7,29.27,South,180,4.0,6.0,75,0.00,,,0.00,meteohub,2013-01-02 19:09:00,
2013-01-02 14:14:00,25.5,18.7,29.27,SSW,203,4.0,6.0,75,0.00,,,0.00,meteohub,2013-01-02 19:14:00,
2013-01-02 14:19:00,25.5,18.7,29.27,South,180,3.0,6.0,75,0.00,,,0.00,meteohub,2013-01-02 19:19:00,
2013-01-02 14:24:00,25.3,18.5,29.27,SSW,203,4.0,6.0,75,0.00,,,0.00,meteohub,2013-01-02 19:24:00,
2013-01-02 14:29:00,25.3,18.5,29.27,SSE,158,3.0,6.0,75,0.00,,,0.00,meteohub,2013-01-02 19:29:00,
2013-01-02 14:34:00,25.3,18.1,29.27,SSE,158,3.0,6.0,74,0.00,,,0.00,meteohub,2013-01-02 19:34:00,
2013-01-02 14:39:00,25.5,18.3,29.27,SSW,203,3.0,5.0,74,0.00,,,0.00,meteohub,2013-01-02 19:39:00,
2013-01-02 14:44:00,25.5,18.3,29.27,South,180,3.0,4.0,74,0.00,,,0.00,meteohub,2013-01-02 19:44:00,
2013-01-02 14:49:00,25.5,18.3,29.27,SE,135,1.0,4.0,74,0.00,,,0.00,meteohub,2013-01-02 19:49:00,
2013-01-02 14:54:00,25.5,18.3,29.27,SSW,203,2.0,5.0,74,0.00,,,0.00,meteohub,2013-01-02 19:54:00,
2013-01-02 14:59:00,25.5,18.7,29.27,South,180,3.0,5.0,75,0.00,,,0.00,meteohub,2013-01-02 19:59:00,
2013-01-02 15:04:00,25.5,18.7,29.27,SSE,158,2.0,4.0,75,0.00,,,0.00,meteohub,2013-01-02 20:04:00,
2013-01-02 15:09:00,25.3,18.5,29.27,South,180,2.0,4.0,75,0.00,,,0.00,meteohub,2013-01-02 20:09:00,
2013-01-02 15:14:00,25.3,18.5,29.28,SSE,158,3.0,4.0,75,0.00,,,0.00,meteohub,2013-01-02 20:14:00,
2013-01-02 15:19:00,25.2,18.3,29.28,SSE,158,3.0,5.0,75,0.00,,,0.00,meteohub,2013-01-02 20:19:00,
2013-01-02 15:24:00,25.2,18.3,29.28,SW,225,3.0,5.0,75,0.00,,,0.00,meteohub,2013-01-02 20:24:00,
2013-01-02 15:29:00,25.2,18.3,29.28,SSE,158,4.0,4.0,75,0.00,,,0.00,meteohub,2013-01-02 20:29:00,
2013-01-02 15:34:00,25.0,18.1,29.28,South,180,6.0,6.0,75,0.00,,,0.00,meteohub,2013-01-02 20:34:00,
2013-01-02 15:39:00,24.8,18.0,29.28,SW,225,7.0,7.0,75,0.00,,,0.00,meteohub,2013-01-02 20:39:00,
2013-01-02 15:44:00,25.0,18.1,29.28,SSW,203,4.0,6.0,75,0.00,,,0.00,meteohub,2013-01-02 20:44:00,
2013-01-02 15:49:00,24.8,18.0,29.28,SSE,158,3.0,7.0,75,0.00,,,0.00,meteohub,2013-01-02 20:49:00,
2013-01-02 15:54:00,24.8,18.0,29.28,SW,225,6.0,8.0,75,0.00,,,0.00,meteohub,2013-01-02 20:54:00,
2013-01-02 15:59:00,24.8,18.0,29.28,SSE,158,5.0,8.0,75,0.00,,,0.00,meteohub,2013-01-02 20:59:00,
2013-01-02 16:04:00,24.8,18.0,29.28,SW,225,9.0,9.0,75,0.00,,,0.00,meteohub,2013-01-02 21:04:00,
2013-01-02 16:09:00,24.8,18.0,29.28,SSW,203,6.0,9.0,75,0.00,,,0.00,meteohub,2013-01-02 21:09:00,
2013-01-02 16:14:00,24.8,18.0,29.28,SSW,203,4.0,9.0,75,0.00,,,0.00,meteohub,2013-01-02 21:14:00,
2013-01-02 16:19:00,24.8,18.0,29.28,South,180,5.0,9.0,75,0.00,,,0.00,meteohub,2013-01-02 21:19:00,
2013-01-02 16:24:00,24.8,18.0,29.28,SSE,158,5.0,7.0,75,0.00,,,0.00,meteohub,2013-01-02 21:24:00,
2013-01-02 16:29:00,24.6,17.8,29.28,SE,135,4.0,7.0,75,0.00,,,0.00,meteohub,2013-01-02 21:29:00,
2013-01-02 16:34:00,24.6,17.8,29.29,SSE,158,8.0,8.0,75,0.00,,,0.00,meteohub,2013-01-02 21:34:00,
2013-01-02 16:39:00,24.6,17.8,29.29,SW,225,9.0,9.0,75,0.00,,,0.00,meteohub,2013-01-02 21:39:00,
2013-01-02 16:44:00,24.6,17.8,29.29,SSE,158,4.0,8.0,75,0.00,,,0.00,meteohub,2013-01-02 21:44:00,
2013-01-02 16:49:00,24.4,17.6,29.29,SW,225,2.0,9.0,75,0.00,,,0.00,meteohub,2013-01-02 21:49:00,
2013-01-02 16:54:00,24.4,17.6,29.28,West,270,8.0,9.0,75,0.00,,,0.00,meteohub,2013-01-02 21:54:00,
2013-01-02 16:59:00,24.4,17.6,29.28,South,180,4.0,8.0,75,0.00,,,0.00,meteohub,2013-01-02 21:59:00,
2013-01-02 17:04:00,24.3,17.4,29.28,South,180,7.0,8.0,75,0.00,,,0.00,meteohub,2013-01-02 22:04:00,
2013-01-02 17:09:00,24.3,17.4,29.28,WNW,293,5.0,9.0,75,0.00,,,0.00,meteohub,2013-01-02 22:09:00,
2013-01-02 17:14:00,24.1,17.2,29.29,SSW,203,5.0,9.0,75,0.00,,,0.00,meteohub,2013-01-02 22:14:00,
2013-01-02 17:19:00,24.1,17.2,29.29,SSW,203,6.0,9.0,75,0.00,,,0.00,meteohub,2013-01-02 22:19:00,
2013-01-02 17:24:00,24.1,17.2,29.29,SSW,203,10.0,10.0,75,0.00,,,0.00,meteohub,2013-01-02 22:24:00,
2013-01-02 17:29:00,24.1,17.2,29.29,West,270,4.0,10.0,75,0.00,,,0.00,meteohub,2013-01-02 22:29:00,
2013-01-02 17:34:00,24.1,17.2,29.29,South,180,5.0,10.0,75,0.00,,,0.00,meteohub,2013-01-02 22:34:00,
2013-01-02 17:39:00,23.9,17.1,29.29,SSE,158,9.0,10.0,75,0.00,,,0.00,meteohub,2013-01-02 22:39:00,
2013-01-02 17:45:00,23.9,17.1,29.29,SSW,203,10.0,10.0,75,0.00,,,0.00,meteohub,2013-01-02 22:45:00,
2013-01-02 17:50:00,23.9,17.1,29.29,SSE,158,6.0,9.0,75,0.00,,,0.00,meteohub,2013-01-02 22:50:00,
2013-01-02 17:55:00,23.9,17.1,29.30,SSW,203,9.0,10.0,75,0.00,,,0.00,meteohub,2013-01-02 22:55:00,
2013-01-02 18:00:00,23.9,17.1,29.30,West,270,5.0,10.0,75,0.00,,,0.00,meteohub,2013-01-02 23:00:00,
2013-01-02 18:05:00,23.9,17.1,29.30,SSW,203,6.0,12.0,75,0.00,,,0.00,meteohub,2013-01-02 23:05:00,
2013-01-02 18:10:00,23.9,17.1,29.30,ESE,113,4.0,12.0,75,0.00,,,0.00,meteohub,2013-01-02 23:10:00,
2013-01-02 18:15:00,23.9,17.1,29.30,South,180,4.0,12.0,75,0.00,,,0.00,meteohub,2013-01-02 23:15:00,
2013-01-02 18:20:00,23.9,17.1,29.30,South,180,5.0,8.0,75,0.00,,,0.00,meteohub,2013-01-02 23:20:00,
2013-01-02 18:25:00,23.9,17.1,29.30,SSW,203,6.0,8.0,75,0.00,,,0.00,meteohub,2013-01-02 23:25:00,
2013-01-02 18:30:00,23.9,17.1,29.30,SSE,158,7.0,7.0,75,0.00,,,0.00,meteohub,2013-01-02 23:30:00,
2013-01-02 18:35:00,23.9,17.1,29.30,SSE,158,4.0,7.0,75,0.00,,,0.00,meteohub,2013-01-02 23:35:00,
2013-01-02 18:40:00,23.9,17.1,29.30,SSW,203,3.0,7.0,75,0.00,,,0.00,meteohub,2013-01-02 23:40:00,
2013-01-02 18:45:00,23.9,17.1,29.30,SSW,203,4.0,6.0,75,0.00,,,0.00,meteohub,2013-01-02 23:45:00,
2013-01-02 18:50:00,23.9,17.1,29.30,SW,225,6.0,6.0,75,0.00,,,0.00,meteohub,2013-01-02 23:50:00,
2013-01-02 18:55:00,24.1,17.2,29.30,SSE,158,3.0,6.0,75,0.00,,,0.00,meteohub,2013-01-02 23:55:00,
2013-01-02 19:00:00,24.1,17.2,29.30,SSW,203,3.0,6.0,75,0.00,,,0.00,meteohub,2013-01-03 00:00:00,
2013-01-02 19:05:00,23.9,17.1,29.30,SSE,158,4.0,6.0,75,0.00,,,0.00,meteohub,2013-01-03 00:05:00,
2013-01-02 19:10:00,23.9,17.1,29.30,SSW,203,4.0,6.0,75,0.00,,,0.00,meteohub,2013-01-03 00:10:00,
2013-01-02 19:15:00,23.9,17.1,29.30,SSW,203,3.0,6.0,75,0.00,,,0.00,meteohub,2013-01-03 00:15:00,
2013-01-02 19:20:00,23.9,17.1,29.30,SSE,158,4.0,6.0,75,0.00,,,0.00,meteohub,2013-01-03 00:20:00,
2013-01-02 19:25:00,23.9,17.1,29.30,SW,225,3.0,5.0,75,0.00,,,0.00,meteohub,2013-01-03 00:25:00,
2013-01-02 19:30:00,23.7,16.9,29.30,South,180,5.0,5.0,75,0.00,,,0.00,meteohub,2013-01-03 00:30:00,
2013-01-02 19:37:00,23.7,16.9,29.29,SSE,158,4.0,5.0,75,0.00,,,0.00,meteohub,2013-01-03 00:37:00,
2013-01-02 19:42:00,23.7,16.9,29.29,SSE,158,4.0,5.0,75,0.00,,,0.00,meteohub,2013-01-03 00:42:00,
2013-01-02 19:47:00,23.9,17.1,29.29,SSE,158,3.0,6.0,75,0.00,,,0.00,meteohub,2013-01-03 00:47:00,
2013-01-02 19:52:00,23.7,16.9,29.29,SSW,203,4.0,7.0,75,0.00,,,0.00,meteohub,2013-01-03 00:52:00,
2013-01-02 19:57:00,23.7,16.9,29.29,SE,135,3.0,7.0,75,0.00,,,0.00,meteohub,2013-01-03 00:57:00,
2013-01-02 20:02:00,23.7,16.9,29.29,SSE,158,3.0,6.0,75,0.00,,,0.00,meteohub,2013-01-03 01:02:00,
2013-01-02 20:07:00,23.5,16.7,29.29,SSE,158,2.0,5.0,75,0.00,,,0.00,meteohub,2013-01-03 01:07:00,
2013-01-02 20:12:00,23.5,16.7,29.29,ESE,113,4.0,5.0,75,0.00,,,0.00,meteohub,2013-01-03 01:12:00,
2013-01-02 20:17:00,23.5,16.7,29.29,WSW,248,0.0,5.0,75,0.00,,,0.00,meteohub,2013-01-03 01:17:00,
2013-01-02 20:22:00,23.5,16.7,29.29,SSE,158,3.0,5.0,75,0.00,,,0.00,meteohub,2013-01-03 01:22:00,
2013-01-02 20:27:00,23.5,16.7,29.29,SSE,158,3.0,4.0,75,0.00,,,0.00,meteohub,2013-01-03 01:27:00,
2013-01-02 20:32:00,23.5,16.7,29.29,SE,135,2.0,3.0,75,0.00,,,0.00,meteohub,2013-01-03 01:32:00,
2013-01-02 20:37:00,23.5,16.7,29.29,ESE,113,4.0,4.0,75,0.00,,,0.00,meteohub,2013-01-03 01:37:00,
2013-01-02 20:42:00,23.5,16.5,29.29,South,180,3.0,4.0,74,0.00,,,0.00,meteohub,2013-01-03 01:42:00,
2013-01-02 20:47:00,23.5,16.5,29.29,ESE,113,0.0,4.0,74,0.00,,,0.00,meteohub,2013-01-03 01:47:00,
2013-01-02 20:52:00,23.5,16.5,29.29,SSE,158,2.0,4.0,74,0.00,,,0.00,meteohub,2013-01-03 01:52:00,
2013-01-02 20:57:00,23.5,16.7,29.29,SE,135,2.0,3.0,75,0.00,,,0.00,meteohub,2013-01-03 01:57:00,
2013-01-02 21:02:00,23.5,16.7,29.29,SSE,158,4.0,4.0,75,0.00,,,0.00,meteohub,2013-01-03 02:02:00,
2013-01-02 21:07:00,23.5,16.7,29.29,ESE,113,4.0,4.0,75,0.00,,,0.00,meteohub,2013-01-03 02:07:00,
2013-01-02 21:12:00,23.5,16.7,29.29,SSE,158,2.0,4.0,75,0.00,,,0.00,meteohub,2013-01-03 02:12:00,
2013-01-02 21:17:00,23.5,16.7,29.28,North,0,3.0,4.0,75,0.00,,,0.00,meteohub,2013-01-03 02:17:00,
2013-01-02 21:22:00,23.5,16.7,29.28,ESE,113,6.0,6.0,75,0.00,,,0.00,meteohub,2013-01-03 02:22:00,
2013-01-02 21:27:00,23.5,16.7,29.28,SSE,158,4.0,6.0,75,0.00,,,0.00,meteohub,2013-01-03 02:27:00,
2013-01-02 21:32:00,23.4,16.7,29.28,SE,135,1.0,6.0,75,0.00,,,0.00,meteohub,2013-01-03 02:32:00,
2013-01-02 21:39:00,23.4,16.7,29.28,SE,135,3.0,6.0,75,0.00,,,0.00,meteohub,2013-01-03 02:39:00,
2013-01-02 21:44:00,23.4,16.7,29.28,SSE,158,2.0,4.0,75,0.00,,,0.00,meteohub,2013-01-03 02:44:00,
2013-01-02 21:49:00,23.4,16.7,29.28,SE,135,3.0,3.0,75,0.00,,,0.00,meteohub,2013-01-03 02:49:00,
2013-01-02 21:54:00,23.4,16.7,29.31,SE,135,2.0,3.0,75,0.00,,,0.00,meteohub,2013-01-03 02:54:00,
2013-01-02 21:59:00,23.4,16.7,29.31,SE,135,4.0,4.0,75,0.00,,,0.00,meteohub,2013-01-03 02:59:00,
2013-01-02 22:04:00,23.4,16.7,29.31,ESE,113,4.0,5.0,75,0.00,,,0.00,meteohub,2013-01-03 03:04:00,
2013-01-02 22:09:00,23.4,16.7,29.31,SSE,158,6.0,6.0,75,0.00,,,0.00,meteohub,2013-01-03 03:09:00,
2013-01-02 22:15:00,23.4,16.7,29.31,ESE,113,1.0,5.0,75,0.00,,,0.00,meteohub,2013-01-03 03:15:00,
2013-01-02 22:20:00,23.4,16.7,29.31,SE,135,2.0,6.0,75,0.00,,,0.00,meteohub,2013-01-03 03:20:00,
2013-01-02 22:25:00,23.4,16.7,29.31,SE,135,2.0,6.0,75,0.00,,,0.00,meteohub,2013-01-03 03:25:00,
2013-01-02 22:30:00,23.4,16.7,29.31,SSE,158,2.0,5.0,75,0.00,,,0.00,meteohub,2013-01-03 03:30:00,
2013-01-02 22:37:00,23.4,16.7,29.31,SE,135,2.0,3.0,75,0.00,,,0.00,meteohub,2013-01-03 03:37:00,
2013-01-02 22:45:00,23.4,16.7,29.31,South,180,4.0,4.0,75,0.00,,,0.00,meteohub,2013-01-03 03:45:00,
2013-01-02 22:50:00,23.4,16.7,29.31,South,180,3.0,4.0,75,0.00,,,0.00,meteohub,2013-01-03 03:50:00,
2013-01-02 22:55:00,23.4,16.7,29.31,East,90,0.0,4.0,75,0.00,,,0.00,meteohub,2013-01-03 03:55:00,
2013-01-02 23:00:00,23.4,16.7,29.31,SSE,158,2.0,4.0,75,0.00,,,0.00,meteohub,2013-01-03 04:00:00,
2013-01-02 23:05:00,23.4,16.7,29.31,SSE,158,3.0,4.0,75,0.00,,,0.00,meteohub,2013-01-03 04:05:00,
2013-01-02 23:10:00,23.4,16.7,29.31,SSW,203,2.0,4.0,75,0.00,,,0.00,meteohub,2013-01-03 04:10:00,
2013-01-02 23:15:00,23.4,16.7,29.31,ESE,113,3.0,4.0,75,0.00,,,0.00,meteohub,2013-01-03 04:15:00,
2013-01-02 23:20:00,23.4,16.7,29.31,ESE,113,2.0,4.0,75,0.00,,,0.00,meteohub,2013-01-03 04:20:00,
2013-01-02 23:25:00,23.4,16.7,29.31,SE,135,4.0,4.0,75,0.00,,,0.00,meteohub,2013-01-03 04:25:00,
2013-01-02 23:30:00,23.2,16.5,29.31,East,90,2.0,4.0,75,0.00,,,0.00,meteohub,2013-01-03 04:30:00,
2013-01-02 23:35:00,23.2,16.5,29.30,ENE,68,5.0,5.0,75,0.00,,,0.00,meteohub,2013-01-03 04:35:00,
2013-01-02 23:40:00,23.2,16.5,29.30,ESE,113,3.0,4.0,75,0.00,,,0.00,meteohub,2013-01-03 04:40:00,
2013-01-02 23:45:00,23.2,16.5,29.30,ESE,113,3.0,5.0,75,0.00,,,0.00,meteohub,2013-01-03 04:45:00,
2013-01-02 23:50:00,23.2,16.5,29.30,SSE,158,0.0,5.0,75,0.00,,,0.00,meteohub,2013-01-03 04:50:00,
2013-01-02 23:55:00,23.2,16.5,29.30,ESE,113,2.0,4.0,75,0.00,,,0.00,meteohub,2013-01-03 04:55:00,